Vertical_Velocity
-1 -5 7 -1 -4 -3 -2 -2 -2 8 -2 -5 1 0 6 7 1 3 3 1 1 -1 0 2 0 1 -1 -1 -1 1 -0 1 -0 1 1 -2 -2 -0 -0 -2 -2 -2 -3 -0
-3 2 4 1 -2 -3 -2 -2 9 6 -1 -9 -2 0 4 5 5 3 2 2 1 2 -2 -1 1 1 1 -1 -0 0 -1 -1 -3 -2 0 2 -1 -1 -0 -1 -3 -3 -0 -1
-7 -2 3 3 2 -3 2 -2 2 -7 -2 -4 -2 -1 2 1 7 4 3 3 3 2 3 6 0 7 1 -2 -2 1 -1 0 -1 0 -0 -1 1 2 0 -1 1 -1 -2 -0
-3 9 -0 -0 5 -8 2 -4 -6 -0 -8 -1 -4 -13 4 -3 4 -2 4 7 -0 1 1 1 4 6 -0 -3 -1 -6 -1 -0 0 -1 1 2 -1 0 1 1 -0 -3 -1 -2
11 -1 0 8 1 -6 5 -0 -1 -1 -3 -4 5 -30 13 5 1 5 3 1 2 -1 2 1 -3 7 -1 2 -5 -3 -5 -2 -1 -2 0 1 -1 -0 1 3 1 -1 1 -0
11 -4 2 1 4 0 0 -3 -2 -0 -2 -10 7 -13 19 0 2 1 6 7 4 4 0 1 9 13 4 1 3 2 -0 -2 -2 -1 -0 -1 -1 -1 -2 -4 1 -2 -1 1
1 7 4 -3 -5 -4 -2 3 -4 -8 -4 -3 4 -13 7 -0 -4 -2 -4 3 2 -0 2 -2 1 -4 -3 1 0 0 4 -1 -3 1 -1 0 -1 -2 -3 -3 -3 -2 -2 -1
-4 7 2 4 -2 -3 5 -2 -0 -12 -1 7 2 -13 6 -3 3 -3 -1 3 1 3 -0 6 3 -0 -3 2 1 3 0 1 1 -1 -2 -2 -0 -1 -0 -3 -2 -2 -1 -2
-17 -3 -1 9 -5 -4 15 5 3 -14 -0 -9 6 1 -0 4 -0 -2 2 -0 1 2 6 3 -2 3 1 -1 3 1 1 1 2 -0 3 -0 -2 -1 -2 -2 -3 -1 -1 -2
1 -33 1 5 -4 8 -6 -1 3 2 -13 -8 3 -1 -9 9 -2 -2 4 -1 -4 2 3 1 -1 -0 -1 -1 -2 2 2 1 -1 1 -2 -1 -0 -0 -4 -2 -0 1 0 -2
8 -5 25 -7 12 8 -4 -3 -3 -1 -2 -14 -1 6 4 2 3 -3 3 -2 -2 1 4 -1 5 -2 1 -0 4 1 2 1 2 0 -1 1 -4 1 2 1 -1 -1 1 -1
13 -16 -22 -7 6 2 -2 0 1 -10 15 -4 -8 16 -2 4 5 1 1 2 5 2 8 8 1 -1 1 0 0 4 1 2 2 -1 1 0 1 0 5 3 4 1 -1 -1
16 -26 -27 -9 -2 5 -7 11 -2 -1 4 9 -15 20 11 1 -7 -3 4 -4 2 7 12 8 1 13 4 -2 -0 3 1 3 4 4 -1 1 1 2 1 4 3 -0 1 2
14 -9 -20 -27 5 7 -13 5 10 3 -22 17 -2 5 3 2 -1 -3 6 4 -2 4 -1 7 -1 -7 -2 -3 -0 2 -0 2 2 0 -2 -2 4 -1 -2 -2 -1 4 2 1
12 -16 9 -8 -3 10 -2 -9 3 -2 7 -24 28 -15 3 1 2 -3 -0 1 4 2 -3 4 1 2 -2 -3 -1 -5 -3 -2 1 2 3 -1 -3 -4 -2 -2 2 -0 3 4
0 -30 3 -30 4 5 -12 -11 6 3 -4 -10 -0 -7 7 8 -0 -3 -0 3 2 2 2 -6 -4 -0 -1 1 1 4 0 -5 4 -7 -1 -3 -3 -4 5 11 -1 -4 -3 -3
2 2 10 -44 22 16 -53 2 12 4 1 12 -6 12 -3 3 4 -1 3 -3 -0 5 1 5 8 -1 -4 2 8 -4 10 6 0 0 0 -2 2 2 0 5 -7 -4 -3 -1
-9 -2 10 -46 36 -30 -17 -1 9 -5 -1 -5 -6 7 0 6 5 -1 1 2 2 5 10 1 -1 -2 4 3 0 1 2 4 3 1 -0 0 3 3 5 1 -2 -2 -2 -3
1 20 -7 1 30 -23 -34 -15 3 13 -24 -3 -9 1 -1 -1 1 4 0 2 0 -0 -2 -4 3 7 2 3 4 4 5 2 2 3 2 0 -2 2 1 0 2 0 2 3
26 16 29 -2 -1 -35 -26 36 12 27 -136 14 -0 6 4 4 -7 9 2 1 -3 -0 1 3 4 7 8 7 3 -1 1 0 0 -2 1 -2 -3 -1 -0 -3 0 1 -1 5
4 22 -4 1 -3 -54 8 20 15 -40 -11 21 11 1 -5 -4 13 -2 -11 6 5 2 0 3 5 1 3 1 -0 -3 0 -0 1 0 1 5 5 6 6 3 4 4 2 -1
-5 15 -6 17 -6 -87 10 8 -27 45 -8 -6 21 1 -1 5 1 -2 10 3 -1 -1 3 2 3 3 1 3 -0 1 -2 2 2 -0 -2 -1 -0 0 1 3 7 5 4 1
-27 -15 -3 -16 -9 -4 15 20 12 -3 -2 -1 1 -1 1 3 3 3 1 -2 2 1 1 -0 -1 -2 -2 -0 2 -2 1 -3 -2 4 1 -1 -0 -1 1 -3 0 4 5 1
-15 1 -9 -2 -1 -11 5 1 -6 -6 4 3 1 8 5 4 3 1 3 0 2 0 -4 -1 -1 0 -0 0 -0 -1 -4 -8 -3 -2 -6 -4 -0 3 11 14 8 -3 3 -2
-21 20 -3 15 -9 -2 -14 1 8 32 -12 2 7 6 8 8 4 1 -4 -2 1 -0 -1 3 1 -0 1 -1 -1 -1 1 -1 2 2 1 -2 -1 -2 -2 -9 6 4 8 3
25 -3 -16 10 20 12 29 3 41 -1 -3 1 3 7 7 5 1 2 -3 2 3 0 -1 -2 -2 -0 -2 2 1 -2 -1 -2 -1 2 -1 -0 -4 -3 -1 -1 -3 3 1 6
Height
5863 5865 5869 5866 5863 5864 5863 5863 5865 5866 5863 5859 5857 5854 5853 5855 5857 5859 5857 5853 5851 5848 5845 5842 5841 5841 5840 5839 5838 5838 5837 5835 5834 5833 5832 5831 5830 5828 5827 5826 5825 5824 5823 5821
5859 5858 5858 5856 5855 5854 5854 5854 5858 5857 5855 5852 5850 5849 5847 5848 5851 5852 5852 5848 5846 5844 5841 5838 5837 5837 5836 5835 5834 5835 5834 5832 5830 5829 5828 5827 5825 5824 5824 5823 5822 5821 5819 5816
5851 5852 5851 5849 5847 5846 5847 5846 5847 5845 5845 5842 5841 5839 5838 5841 5844 5845 5846 5843 5841 5838 5836 5833 5832 5832 5832 5831 5831 5831 5830 5828 5826 5824 5822 5821 5820 5820 5818 5818 5817 5817 5815 5813
5845 5846 5844 5842 5843 5840 5838 5839 5835 5835 5833 5833 5833 5827 5830 5833 5834 5838 5838 5837 5835 5833 5831 5829 5827 5825 5828 5827 5827 5826 5826 5824 5822 5820 5818 5817 5816 5816 5816 5813 5813 5812 5811 5809
5839 5838 5837 5837 5836 5834 5835 5833 5830 5826 5824 5823 5822 5821 5820 5824 5828 5829 5828 5827 5828 5826 5826 5825 5823 5821 5823 5823 5822 5821 5821 5819 5818 5816 5815 5813 5812 5811 5809 5809 5807 5807 5806 5804
5832 5831 5831 5830 5830 5828 5827 5826 5822 5819 5816 5811 5816 5816 5809 5814 5820 5820 5818 5819 5820 5819 5819 5819 5816 5816 5818 5817 5816 5816 5815 5814 5813 5812 5810 5808 5807 5805 5804 5803 5802 5801 5801 5799
5823 5824 5824 5823 5821 5822 5820 5817 5813 5811 5808 5806 5809 5804 5802 5805 5808 5810 5809 5809 5810 5809 5809 5811 5809 5811 5812 5811 5811 5811 5809 5809 5808 5807 5804 5803 5802 5800 5799 5799 5797 5797 5796 5794
5815 5817 5816 5816 5814 5812 5812 5811 5808 5802 5799 5800 5797 5792 5797 5802 5802 5801 5801 5800 5799 5799 5799 5800 5801 5803 5805 5805 5805 5804 5803 5803 5803 5801 5799 5798 5796 5795 5794 5794 5793 5792 5790 5788
5805 5808 5808 5808 5807 5804 5806 5805 5801 5795 5793 5788 5787 5788 5790 5795 5796 5794 5793 5792 5790 5789 5791 5791 5793 5796 5797 5798 5798 5798 5798 5797 5796 5794 5793 5792 5790 5789 5788 5787 5786 5786 5784 5782
5797 5796 5800 5799 5799 5799 5796 5796 5796 5793 5784 5780 5778 5778 5783 5788 5786 5786 5786 5784 5782 5782 5785 5785 5788 5789 5790 5791 5792 5792 5791 5790 5788 5788 5787 5786 5784 5784 5783 5782 5780 5779 5777 5775
5786 5784 5792 5789 5791 5790 5789 5787 5788 5785 5782 5776 5771 5769 5777 5781 5778 5778 5778 5776 5776 5776 5777 5779 5782 5783 5785 5785 5786 5785 5784 5783 5782 5781 5781 5779 5778 5777 5777 5775 5773 5771 5768 5765
5778 5770 5776 5779 5781 5780 5781 5781 5780 5775 5773 5769 5764 5758 5770 5773 5771 5772 5772 5770 5770 5769 5769 5773 5775 5776 5778 5779 5779 5777 5777 5777 5776 5775 5775 5774 5772 5770 5770 5769 5767 5764 5761 5758
5766 5759 5763 5768 5770 5770 5771 5773 5770 5768 5764 5759 5757 5755 5764 5763 5762 5766 5765 5763 5764 5765 5765 5766 5768 5767 5769 5770 5770 5769 5769 5769 5769 5769 5769 5767 5765 5764 5763 5761 5759 5756 5752 5748
5748 5746 5752 5755 5758 5757 5757 5760 5761 5759 5754 5755 5749 5748 5753 5754 5754 5757 5758 5757 5757 5759 5758 5759 5760 5761 5762 5762 5762 5762 5762 5761 5761 5762 5762 5760 5759 5757 5755 5752 5749 5746 5742 5737
5731 5729 5737 5742 5746 5743 5743 5745 5748 5745 5747 5742 5746 5742 5747 5746 5746 5746 5749 5750 5749 5751 5751 5752 5753 5753 5755 5756 5755 5755 5754 5754 5754 5754 5753 5752 5751 5749 5747 5745 5741 5736 5731 5727
5715 5714 5719 5721 5731 5728 5726 5732 5733 5735 5736 5735 5737 5734 5742 5740 5737 5738 5740 5741 5743 5744 5744 5745 5746 5747 5747 5749 5749 5748 5746 5747 5747 5747 5747 5745 5744 5742 5737 5732 5732 5728 5724 5720
5699 5700 5704 5704 5711 5708 5704 5724 5720 5725 5726 5726 5722 5731 5729 5730 5730 5731 5731 5732 5734 5736 5738 5738 5738 5739 5741 5742 5742 5741 5740 5740 5740 5740 5739 5737 5735 5733 5729 5726 5722 5719 5715 5710
5681 5686 5688 5687 5692 5684 5702 5711 5707 5709 5714 5716 5716 5717 5720 5721 5722 5722 5722 5724 5727 5727 5728 5730 5731 5732 5734 5734 5734 5734 5734 5734 5734 5733 5731 5728 5726 5723 5721 5718 5714 5709 5704 5696
5667 5667 5665 5668 5671 5670 5682 5696 5699 5699 5705 5707 5703 5706 5708 5709 5708 5711 5715 5716 5718 5719 5720 5721 5723 5725 5726 5727 5727 5727 5727 5728 5727 5724 5722 5719 5717 5715 5712 5707 5702 5696 5689 5682
5645 5644 5647 5650 5648 5650 5676 5687 5689 5687 5689 5695 5697 5698 5697 5699 5699 5705 5707 5707 5708 5709 5712 5714 5717 5717 5717 5719 5719 5718 5718 5717 5715 5714 5712 5710 5707 5704 5700 5695 5689 5682 5675 5669
5618 5621 5619 5629 5633 5639 5663 5663 5673 5675 5685 5688 5684 5685 5686 5688 5692 5692 5693 5698 5700 5701 5704 5707 5708 5708 5709 5709 5709 5709 5708 5706 5705 5703 5701 5699 5697 5693 5689 5683 5677 5669 5661 5654
5598 5606 5610 5621 5622 5620 5638 5649 5663 5673 5672 5672 5672 5674 5676 5679 5680 5683 5685 5687 5691 5695 5698 5699 5699 5699 5699 5700 5702 5700 5699 5699 5697 5695 5692 5689 5685 5681 5675 5670 5663 5655 5647 5640
5580 5590 5597 5602 5606 5618 5639 5650 5655 5655 5656 5660 5661 5664 5667 5670 5674 5677 5680 5682 5685 5688 5690 5690 5690 5691 5692 5693 5692 5691 5690 5689 5687 5684 5681 5677 5673 5667 5660 5654 5648 5640 5631 5625
5575 5582 5587 5597 5600 5616 5627 5635 5641 5643 5641 5644 5651 5656 5660 5664 5668 5672 5674 5676 5678 5681 5682 5683 5684 5685 5685 5684 5683 5682 5681 5679 5676 5673 5669 5665 5660 5654 5648 5640 5632 5624 5616 5608
5567 5577 5581 5585 5597 5609 5617 5622 5626 5629 5630 5636 5643 5650 5655 5659 5662 5664 5666 5667 5670 5672 5674 5676 5677 5677 5677 5676 5675 5674 5672 5669 5665 5661 5658 5653 5648 5641 5633 5625 5616 5607 5600 5593
5556 5565 5570 5578 5595 5601 5610 5613 5615 5620 5623 5632 5638 5643 5649 5652 5655 5656 5657 5659 5662 5665 5666 5668 5668 5669 5668 5667 5666 5664 5662 5659 5655 5650 5646 5639 5634 5626 5616 5608 5599 5591 5584 5576